,,Stat6,,Stat2,,Stat8,,Stat9,,Stat10,,Wind1,,Wind1,
time,status,PA1M_AVG,status,PR1M_SUM,status,RH1M_AVG,status,SR1M_AVG,status,TA1M_AVG,status,W1dAve1m,status,W1sAve1m,
2004-02-13, 00:00:01,VALID,919.568,VALID,0,VALID,96.0074,VALID,0,VALID,20.082,VALID,130,VALID,1.0263,
2004-02-13, 00:01:01,VALID,919.565,VALID,0,VALID,95.9476,VALID,0.0339617,VALID,20.0785,VALID,121,VALID,1.0705,
2004-02-13, 00:02:01,VALID,919.55,VALID,0,VALID,95.9248,VALID,0.0169808,VALID,20.0557,VALID,140,VALID,1.04256,
2004-02-13, 00:03:01,VALID,919.538,VALID,0,VALID,96.0723,VALID,0,VALID,20.0621,VALID,154,VALID,0.850818,
2004-02-13, 00:04:01,VALID,919.549,VALID,0,VALID,96.1168,VALID,0,VALID,20.0656,VALID,139,VALID,1.09245,
2004-02-13, 00:05:01,VALID,919.56,VALID,0.2,VALID,95.9527,VALID,0.0169808,VALID,20.0495,VALID,155,VALID,1.37198,
2004-02-13, 00:06:01,VALID,919.55,VALID,0,VALID,95.7887,VALID,0.0339617,VALID,20.0594,VALID,206,VALID,0.710193,
2004-02-13, 00:07:01,VALID,919.55,VALID,0,VALID,95.701,VALID,0,VALID,20.0823,VALID,175,VALID,0.575335,
2004-02-13, 00:08:01,VALID,919.522,VALID,0,VALID,95.6463,VALID,0,VALID,20.0885,VALID,182,VALID,0.732851,
2004-02-13, 00:09:01,VALID,919.532,VALID,0,VALID,95.673,VALID,0,VALID,20.0917,VALID,174,VALID,0.600852,
2004-02-13, 00:10:01,VALID,919.52,VALID,0,VALID,95.8192,VALID,0,VALID,20.092,VALID,167,VALID,0.408668,
2004-02-13, 00:11:01,VALID,919.507,VALID,0,VALID,95.893,VALID,0,VALID,20.0885,VALID,140,VALID,0.833757,
2004-02-13, 00:12:01,VALID,919.492,VALID,0,VALID,95.9095,VALID,-0.0169808,VALID,20.0885,VALID,137,VALID,0.644709,
2004-02-13, 00:13:01,VALID,919.48,VALID,0,VALID,95.8828,VALID,-0.0169808,VALID,20.0885,VALID,143,VALID,0.655692,
2004-02-13, 00:14:01,VALID,919.484,VALID,0,VALID,95.9858,VALID,0,VALID,20.085,VALID,145,VALID,0.372582,
2004-02-13, 00:15:01,VALID,919.47,VALID,0,VALID,96.2834,VALID,0,VALID,20.1113,VALID,24,VALID,0.2742,
2004-02-13, 00:16:01,VALID,919.458,VALID,0.2,VALID,96.1448,VALID,0.0169808,VALID,20.1014,VALID,34,VALID,0.300509,
2004-02-13, 00:17:01,VALID,919.454,VALID,0,VALID,96.0685,VALID,0,VALID,20.1208,VALID,34,VALID,0.054178,
2004-02-13, 00:18:01,VALID,919.459,VALID,0,VALID,96.2897,VALID,-0.0169808,VALID,20.16,VALID,359,VALID,0.556641,
2004-02-13, 00:19:01,VALID,919.469,VALID,0,VALID,96.118,VALID,0,VALID,20.1856,VALID,3,VALID,0.0930233,
2004-02-13, 00:20:00,VALID,919.469,VALID,0.2,VALID,95.8027,VALID,0,VALID,20.1851,VALID,137,VALID,0.710574,
2004-02-13, 00:21:00,VALID,919.464,VALID,0,VALID,95.1732,VALID,0.0339617,VALID,20.1754,VALID,121,VALID,1.59102,
2004-02-13, 00:22:00,VALID,919.458,VALID,0,VALID,93.627,VALID,0.0169808,VALID,20.1498,VALID,130,VALID,1.67857,
2004-02-13, 00:23:00,VALID,919.448,VALID,0,VALID,93.2506,VALID,0,VALID,20.2276,VALID,144,VALID,2.0149,
2004-02-13, 00:24:00,VALID,919.441,VALID,0,VALID,92.9378,VALID,0,VALID,20.286,VALID,135,VALID,1.5686,
2004-02-13, 00:25:00,VALID,919.424,VALID,0,VALID,93.1679,VALID,0.0169808,VALID,20.318,VALID,129,VALID,1.68215,
2004-02-13, 00:26:00,VALID,919.419,VALID,0,VALID,93.3549,VALID,0,VALID,20.3113,VALID,127,VALID,1.80566,
2004-02-13, 00:27:00,VALID,919.451,VALID,0.2,VALID,93.5914,VALID,0.0169808,VALID,20.2855,VALID,126,VALID,1.90996,
2004-02-13, 00:28:00,VALID,919.454,VALID,0,VALID,93.9144,VALID,0.0339617,VALID,20.2301,VALID,101,VALID,1.60565,
2004-02-13, 00:29:00,VALID,919.467,VALID,0,VALID,93.8355,VALID,-0.0509425,VALID,20.206,VALID,113,VALID,1.78108,
2004-02-13, 00:30:00,VALID,919.462,VALID,0,VALID,93.8559,VALID,-0.0679233,VALID,20.1906,VALID,136,VALID,2.11928,
2004-02-13, 00:31:00,VALID,919.494,VALID,0,VALID,94.1153,VALID,-0.0339617,VALID,20.1643,VALID,111,VALID,1.54116,
2004-02-13, 00:32:00,VALID,919.515,VALID,0,VALID,94.0682,VALID,-0.0339617,VALID,20.1387,VALID,112,VALID,1.52649,
2004-02-13, 00:33:00,VALID,919.524,VALID,0,VALID,93.964,VALID,-0.0339617,VALID,20.1089,VALID,110,VALID,1.66158,
2004-02-13, 00:34:00,VALID,919.539,VALID,0,VALID,93.6257,VALID,-0.0679233,VALID,20.1027,VALID,134,VALID,1.96684,
2004-02-13, 00:35:00,VALID,919.547,VALID,0,VALID,93.7694,VALID,-0.0679233,VALID,20.132,VALID,95,VALID,1.35352,
2004-02-13, 00:36:00,VALID,919.545,VALID,0,VALID,94.4777,VALID,-0.0509425,VALID,20.1449,VALID,75,VALID,0.943359,
2004-02-13, 00:37:00,VALID,919.529,VALID,0,VALID,93.8253,VALID,-0.0509425,VALID,20.1327,VALID,129,VALID,1.61523,
2004-02-13, 00:38:00,VALID,919.499,VALID,0,VALID,93.1908,VALID,-0.0849042,VALID,20.1322,VALID,131,VALID,1.65643,
2004-02-13, 00:39:00,VALID,919.466,VALID,0,VALID,92.9289,VALID,-0.0849042,VALID,20.1576,VALID,131,VALID,1.84152,
2004-02-13, 00:40:00,VALID,919.445,VALID,0,VALID,92.5359,VALID,-0.0509425,VALID,20.2135,VALID,140,VALID,1.63459,
2004-02-13, 00:41:00,VALID,919.435,VALID,0,VALID,92.7623,VALID,-0.0679233,VALID,20.2324,VALID,129,VALID,1.14676,
2004-02-13, 00:42:00,VALID,919.411,VALID,0,VALID,92.8119,VALID,-0.0849042,VALID,20.2256,VALID,127,VALID,1.1686,
2004-02-13, 00:43:00,VALID,919.411,VALID,0,VALID,92.9619,VALID,-0.0509425,VALID,20.2127,VALID,139,VALID,1.33223,
2004-02-13, 00:44:00,VALID,919.401,VALID,0,VALID,92.9123,VALID,-0.0339617,VALID,20.1961,VALID,131,VALID,1.21224,
2004-02-13, 00:45:00,VALID,919.388,VALID,0,VALID,93.4451,VALID,-0.0509425,VALID,20.1998,VALID,109,VALID,0.811357,
2004-02-13, 00:46:00,VALID,919.373,VALID,0,VALID,93.3281,VALID,-0.0679233,VALID,20.1812,VALID,102,VALID,0.986192,
2004-02-13, 00:47:00,VALID,919.353,VALID,0,VALID,93.6143,VALID,-0.0679233,VALID,20.1546,VALID,132,VALID,0.649528,
2004-02-13, 00:48:00,VALID,919.348,VALID,0,VALID,92.9301,VALID,-0.0679233,VALID,20.1355,VALID,131,VALID,1.64939,
2004-02-13, 00:49:00,VALID,919.341,VALID,0,VALID,93.1171,VALID,-0.0509425,VALID,20.1486,VALID,123,VALID,1.33203,
2004-02-13, 00:50:00,VALID,919.337,VALID,0,VALID,93.3981,VALID,-0.0679233,VALID,20.1583,VALID,119,VALID,1.14426,
2004-02-13, 00:51:00,VALID,919.319,VALID,0,VALID,92.8856,VALID,-0.0679233,VALID,20.1362,VALID,130,VALID,1.54815,
2004-02-13, 00:52:00,VALID,919.313,VALID,0,VALID,93.0191,VALID,-0.0509425,VALID,20.132,VALID,99,VALID,1.48735,
2004-02-13, 00:53:00,VALID,919.297,VALID,0,VALID,93.7414,VALID,-0.0679233,VALID,20.1484,VALID,78,VALID,1.10633,
2004-02-13, 00:54:00,VALID,919.288,VALID,0,VALID,93.6181,VALID,-0.0679233,VALID,20.1101,VALID,120,VALID,1.35547,
2004-02-13, 00:55:00,VALID,919.253,VALID,0,VALID,92.569,VALID,-0.101885,VALID,20.0749,VALID,129,VALID,1.84624,
2004-02-13, 00:56:00,VALID,919.225,VALID,0,VALID,92.1888,VALID,-0.0849042,VALID,20.1029,VALID,106,VALID,0.981286,
2004-02-13, 00:57:00,VALID,919.192,VALID,0,VALID,92.1608,VALID,-0.0679233,VALID,20.1648,VALID,94,VALID,0.857376,
2004-02-13, 00:58:00,VALID,919.171,VALID,0,VALID,92.0998,VALID,-0.0679233,VALID,20.1909,VALID,115,VALID,0.958212,
2004-02-13, 00:59:00,VALID,919.157,VALID,0,VALID,91.9777,VALID,-0.0509425,VALID,20.1939,VALID,119,VALID,1.30164,
2004-02-13, 01:00:00,VALID,919.144,VALID,0,VALID,92.2714,VALID,-0.0849042,VALID,20.1909,VALID,97,VALID,0.625572,
2004-02-13, 01:01:00,VALID,919.133,VALID,0,VALID,92.5906,VALID,-0.0679233,VALID,20.1809,VALID,52,VALID,0.436198,
2004-02-13, 01:02:00,VALID,919.116,VALID,0,VALID,91.9802,VALID,-0.0509425,VALID,20.1519,VALID,105,VALID,1.08743,
2004-02-13, 01:03:00,VALID,919.107,VALID,0,VALID,91.9345,VALID,-0.0849042,VALID,20.1683,VALID,102,VALID,0.704578,
2004-02-13, 01:04:00,VALID,919.094,VALID,0,VALID,91.5924,VALID,-0.0679233,VALID,20.171,VALID,111,VALID,0.890625,
2004-02-13, 01:05:00,VALID,919.074,VALID,0,VALID,91.7603,VALID,-0.0509425,VALID,20.1906,VALID,119,VALID,0.431055,
2004-02-13, 01:06:00,VALID,919.046,VALID,0,VALID,91.2008,VALID,-0.0679233,VALID,20.1869,VALID,122,VALID,1.31232,
2004-02-13, 01:07:00,VALID,919.031,VALID,0,VALID,91.141,VALID,-0.0509425,VALID,20.2127,VALID,104,VALID,0.569404,
2004-02-13, 01:08:00,VALID,919.009,VALID,0,VALID,91.1728,VALID,-0.0339617,VALID,20.242,VALID,110,VALID,0.519354,
2004-02-13, 01:09:00,VALID,919.003,VALID,0,VALID,90.982,VALID,-0.0339617,VALID,20.2386,VALID,106,VALID,1.17188,
2004-02-13, 01:10:00,VALID,919.004,VALID,0,VALID,91.0304,VALID,-0.0679233,VALID,20.2582,VALID,109,VALID,1.0588,
2004-02-13, 01:11:00,VALID,919.001,VALID,0,VALID,91.2465,VALID,-0.0679233,VALID,20.2453,VALID,119,VALID,0.954484,
2004-02-13, 01:12:00,VALID,918.978,VALID,0,VALID,91.272,VALID,-0.0679233,VALID,20.2291,VALID,107,VALID,0.828887,
2004-02-13, 01:13:00,VALID,918.969,VALID,0,VALID,91.0863,VALID,-0.0339617,VALID,20.2232,VALID,138,VALID,1.21784,
2004-02-13, 01:14:00,VALID,918.949,VALID,0,VALID,90.9248,VALID,-0.0509425,VALID,20.2127,VALID,145,VALID,1.54985,
2004-02-13, 01:15:00,VALID,918.932,VALID,0,VALID,90.9808,VALID,-0.0339617,VALID,20.2324,VALID,112,VALID,1.75495,
2004-02-13, 01:16:00,VALID,918.942,VALID,0,VALID,90.907,VALID,-0.0849042,VALID,20.2318,VALID,90,VALID,1.54859,
2004-02-13, 01:17:00,VALID,918.926,VALID,0,VALID,91.3648,VALID,-0.101885,VALID,20.2366,VALID,92,VALID,1.5972,
2004-02-13, 01:18:00,VALID,918.891,VALID,0,VALID,91.6776,VALID,-0.0679233,VALID,20.1869,VALID,81,VALID,0.908203,
2004-02-13, 01:19:00,VALID,918.863,VALID,0,VALID,91.9116,VALID,-0.0509425,VALID,20.1583,VALID,71,VALID,1.1854,
2004-02-13, 01:20:00,VALID,918.814,VALID,0,VALID,91.2402,VALID,-0.0849042,VALID,20.1325,VALID,115,VALID,1.90968,
2004-02-13, 01:21:00,VALID,918.758,VALID,0,VALID,91.1105,VALID,-0.0679233,VALID,20.1322,VALID,97,VALID,1.63507,
2004-02-13, 01:22:00,VALID,918.69,VALID,0,VALID,91.3216,VALID,-0.0339617,VALID,20.132,VALID,74,VALID,2.09596,
2004-02-13, 01:23:00,VALID,918.63,VALID,0,VALID,91.492,VALID,-0.0679233,VALID,20.1293,VALID,104,VALID,1.95413,
2004-02-13, 01:24:00,VALID,918.601,VALID,0,VALID,91.6598,VALID,-0.0339617,VALID,20.09,VALID,101,VALID,2.29652,
2004-02-13, 01:25:00,VALID,918.563,VALID,0,VALID,92.0044,VALID,-0.0679233,VALID,20.0676,VALID,106,VALID,1.74352,
2004-02-13, 01:26:00,VALID,918.529,VALID,0,VALID,92.3439,VALID,-0.0339617,VALID,20.0257,VALID,100,VALID,1.76781,
2004-02-13, 01:27:00,VALID,918.512,VALID,0,VALID,92.0057,VALID,-0.0169808,VALID,19.9772,VALID,109,VALID,2.09766,
2004-02-13, 01:28:00,VALID,918.468,VALID,0,VALID,92.2422,VALID,-0.0339617,VALID,19.9638,VALID,111,VALID,2.04288,
2004-02-13, 01:29:00,VALID,918.463,VALID,0,VALID,92.2613,VALID,-0.0679233,VALID,19.9514,VALID,109,VALID,2.15752,
2004-02-13, 01:30:00,VALID,918.398,VALID,0,VALID,92.1138,VALID,-0.0849042,VALID,19.9355,VALID,100,VALID,2.10689,
2004-02-13, 01:31:00,VALID,918.377,VALID,0,VALID,92.2753,VALID,-0.0849042,VALID,19.9355,VALID,130,VALID,1.8644,
2004-02-13, 01:32:00,VALID,918.342,VALID,0,VALID,92.466,VALID,-0.101885,VALID,19.9124,VALID,110,VALID,2.15825,
2004-02-13, 01:33:00,VALID,918.331,VALID,0,VALID,91.9701,VALID,-0.101885,VALID,19.9129,VALID,112,VALID,2.57086,
2004-02-13, 01:34:00,VALID,918.282,VALID,0,VALID,91.8264,VALID,-0.0849042,VALID,19.929,VALID,102,VALID,2.08125,
2004-02-13, 01:35:00,VALID,918.26,VALID,0,VALID,91.9421,VALID,-0.118866,VALID,19.9519,VALID,84,VALID,1.88917,
2004-02-13, 01:36:00,VALID,918.256,VALID,0,VALID,92.4609,VALID,-0.101885,VALID,19.9357,VALID,68,VALID,1.85227,
2004-02-13, 01:37:00,VALID,918.237,VALID,0,VALID,92.5665,VALID,-0.101885,VALID,19.8908,VALID,99,VALID,1.70132,
2004-02-13, 01:38:00,VALID,918.203,VALID,0,VALID,92.2536,VALID,-0.0849042,VALID,19.8483,VALID,103,VALID,1.74306,
2004-02-13, 01:39:00,VALID,918.203,VALID,0,VALID,92.3795,VALID,-0.101885,VALID,19.8518,VALID,131,VALID,2.8299,
2004-02-13, 01:40:00,VALID,918.179,VALID,0,VALID,92.2689,VALID,-0.101885,VALID,19.8587,VALID,137,VALID,1.86882,
2004-02-13, 01:41:00,VALID,918.171,VALID,0,VALID,92.2702,VALID,-0.118866,VALID,19.8488,VALID,134,VALID,2.75409,
2004-02-13, 01:42:00,VALID,918.199,VALID,0,VALID,92.335,VALID,-0.118866,VALID,19.8386,VALID,128,VALID,2.11421,
2004-02-13, 01:43:00,VALID,918.164,VALID,0,VALID,92.3414,VALID,-0.101885,VALID,19.8485,VALID,129,VALID,2.09766,
2004-02-13, 01:44:00,VALID,918.18,VALID,0,VALID,92.6974,VALID,-0.101885,VALID,19.8292,VALID,125,VALID,1.59453,
2004-02-13, 01:45:00,VALID,918.167,VALID,0,VALID,92.2803,VALID,-0.101885,VALID,19.8001,VALID,140,VALID,2.08455,
2004-02-13, 01:46:00,VALID,918.133,VALID,0,VALID,92.0171,VALID,-0.101885,VALID,19.8227,VALID,130,VALID,1.87155,
2004-02-13, 01:47:00,VALID,918.141,VALID,0,VALID,92.2142,VALID,-0.101885,VALID,19.8585,VALID,129,VALID,1.61302,
2004-02-13, 01:48:00,VALID,918.138,VALID,0,VALID,92.0731,VALID,-0.101885,VALID,19.8552,VALID,125,VALID,2.04996,
2004-02-13, 01:49:00,VALID,918.151,VALID,0,VALID,92.0909,VALID,-0.101885,VALID,19.8617,VALID,144,VALID,1.86047,
2004-02-13, 01:50:00,VALID,918.141,VALID,0,VALID,92.1621,VALID,-0.0849042,VALID,19.8716,VALID,135,VALID,2.29755,
2004-02-13, 01:51:00,VALID,918.13,VALID,0,VALID,92.1532,VALID,-0.101885,VALID,19.8749,VALID,139,VALID,1.9341,
2004-02-13, 01:52:00,VALID,918.132,VALID,0,VALID,92.2422,VALID,-0.101885,VALID,19.8908,VALID,137,VALID,1.74665,
2004-02-13, 01:53:00,VALID,918.119,VALID,0,VALID,92.246,VALID,-0.118866,VALID,19.8811,VALID,143,VALID,1.71627,
2004-02-13, 01:54:00,VALID,918.086,VALID,0,VALID,92.2447,VALID,-0.118866,VALID,19.8779,VALID,139,VALID,1.62432,
2004-02-13, 01:55:00,VALID,918.064,VALID,0,VALID,90.9426,VALID,-0.135847,VALID,19.8942,VALID,144,VALID,2.64364,
2004-02-13, 01:56:00,VALID,918.061,VALID,0,VALID,91.0049,VALID,-0.135847,VALID,20.0038,VALID,140,VALID,2.18289,
2004-02-13, 01:57:00,VALID,918.054,VALID,0,VALID,91.216,VALID,-0.118866,VALID,20.0528,VALID,143,VALID,2.0645,
2004-02-13, 01:58:00,VALID,918.042,VALID,0,VALID,91.2147,VALID,-0.118866,VALID,20.046,VALID,145,VALID,2.82124,
2004-02-13, 01:59:00,VALID,918.048,VALID,0,VALID,91.2821,VALID,-0.0169808,VALID,20.0448,VALID,144,VALID,2.73802,
2004-02-13, 02:00:00,VALID,918.031,VALID,0,VALID,91.483,VALID,-0.0509425,VALID,20.0478,VALID,142,VALID,2.25451,
2004-02-13, 02:01:00,VALID,918.042,VALID,0,VALID,91.7437,VALID,-0.0339617,VALID,20.0346,VALID,141,VALID,2.17243,
2004-02-13, 02:02:00,VALID,918.039,VALID,0,VALID,91.9497,VALID,0.0169808,VALID,20.0018,VALID,128,VALID,2.86793,
2004-02-13, 02:03:00,VALID,918.065,VALID,0,VALID,92.1939,VALID,-0.0169808,VALID,19.9929,VALID,150,VALID,2.0823,
2004-02-13, 02:04:00,VALID,918.069,VALID,0,VALID,92.1417,VALID,-0.0169808,VALID,19.9703,VALID,135,VALID,2.68826,
2004-02-13, 02:05:00,VALID,918.086,VALID,0,VALID,92.1977,VALID,0,VALID,19.9765,VALID,121,VALID,2.58611,
2004-02-13, 02:06:00,VALID,918.078,VALID,0,VALID,91.9179,VALID,0,VALID,19.9859,VALID,142,VALID,1.86551,
2004-02-13, 02:07:00,VALID,918.095,VALID,0,VALID,91.9866,VALID,0,VALID,20.015,VALID,156,VALID,1.86541,
2004-02-13, 02:08:00,VALID,918.103,VALID,0,VALID,92.4164,VALID,0,VALID,20.0249,VALID,136,VALID,2.19661,
2004-02-13, 02:09:00,VALID,918.113,VALID,0,VALID,92.2028,VALID,0,VALID,19.9986,VALID,128,VALID,2.40949,
2004-02-13, 02:10:00,VALID,918.102,VALID,0,VALID,92.1837,VALID,0,VALID,19.9988,VALID,117,VALID,1.96914,
2004-02-13, 02:11:00,VALID,918.106,VALID,0,VALID,92.3236,VALID,-0.0339617,VALID,20.0122,VALID,144,VALID,1.74663,
2004-02-13, 02:12:00,VALID,918.089,VALID,0,VALID,92.1951,VALID,-0.0339617,VALID,20.012,VALID,142,VALID,2.45137,
2004-02-13, 02:13:00,VALID,918.057,VALID,0,VALID,92.1862,VALID,0,VALID,20.0276,VALID,127,VALID,1.74238,
2004-02-13, 02:14:00,VALID,918.032,VALID,0,VALID,92.2422,VALID,0,VALID,20.0212,VALID,119,VALID,1.30923,
2004-02-13, 02:15:00,VALID,918.004,VALID,0,VALID,92.3172,VALID,-0.0339617,VALID,20.0249,VALID,120,VALID,1.70368,
2004-02-13, 02:16:00,VALID,917.997,VALID,0,VALID,92.5372,VALID,0,VALID,20.005,VALID,119,VALID,2.12649,
2004-02-13, 02:17:00,VALID,917.983,VALID,0,VALID,92.5792,VALID,0,VALID,19.9924,VALID,129,VALID,1.71662,
2004-02-13, 02:18:00,VALID,917.993,VALID,0,VALID,92.8462,VALID,0,VALID,19.9827,VALID,133,VALID,1.17708,
2004-02-13, 02:19:00,VALID,917.976,VALID,0,VALID,93.0319,VALID,-0.0169808,VALID,19.9469,VALID,128,VALID,1.25621,
2004-02-13, 02:20:00,VALID,917.981,VALID,0,VALID,92.7712,VALID,0,VALID,19.9342,VALID,135,VALID,1.9319,
2004-02-13, 02:21:00,VALID,917.984,VALID,0,VALID,92.6389,VALID,0,VALID,19.9402,VALID,109,VALID,1.80394,
2004-02-13, 02:22:00,VALID,917.988,VALID,0,VALID,92.7648,VALID,0,VALID,19.9469,VALID,77,VALID,1.12431,
2004-02-13, 02:23:00,VALID,917.966,VALID,0,VALID,92.6262,VALID,-0.0169808,VALID,19.9442,VALID,140,VALID,1.56141,
2004-02-13, 02:24:00,VALID,917.946,VALID,0,VALID,92.1328,VALID,-0.0169808,VALID,19.9402,VALID,132,VALID,1.77681,
2004-02-13, 02:25:00,VALID,917.953,VALID,0,VALID,92.0985,VALID,0,VALID,19.9889,VALID,123,VALID,2.4871,
2004-02-13, 02:26:00,VALID,917.948,VALID,0,VALID,92.4075,VALID,0,VALID,20.0088,VALID,84,VALID,1.29936,
2004-02-13, 02:27:00,VALID,917.942,VALID,0,VALID,91.6827,VALID,0,VALID,19.9986,VALID,106,VALID,2.28757,
2004-02-13, 02:28:00,VALID,917.933,VALID,0,VALID,91.6522,VALID,0,VALID,20.0408,VALID,106,VALID,1.57522,
2004-02-13, 02:29:00,VALID,917.929,VALID,0,VALID,91.4462,VALID,0.0339617,VALID,20.0435,VALID,102,VALID,2.05373,
2004-02-13, 02:30:00,VALID,917.922,VALID,0,VALID,91.2046,VALID,0.0339617,VALID,20.0696,VALID,98,VALID,2.21955,
2004-02-13, 02:31:00,VALID,917.938,VALID,0,VALID,90.4416,VALID,0,VALID,20.1051,VALID,102,VALID,2.70694,
2004-02-13, 02:32:00,VALID,917.972,VALID,0,VALID,89.7969,VALID,0.0509425,VALID,20.1759,VALID,99,VALID,1.84141,
2004-02-13, 02:33:00,VALID,917.987,VALID,0,VALID,89.4052,VALID,0.0169808,VALID,20.2601,VALID,113,VALID,2.5186,
2004-02-13, 02:34:00,VALID,917.995,VALID,0,VALID,89.4904,VALID,0.0339617,VALID,20.3185,VALID,94,VALID,2.33984,
2004-02-13, 02:35:00,VALID,917.985,VALID,0,VALID,89.4561,VALID,0.0509425,VALID,20.3315,VALID,129,VALID,2.06191,
2004-02-13, 02:36:00,VALID,917.98,VALID,0,VALID,89.1344,VALID,0.0169808,VALID,20.3277,VALID,125,VALID,2.98739,
2004-02-13, 02:37:00,VALID,917.983,VALID,0,VALID,88.5011,VALID,0,VALID,20.3796,VALID,134,VALID,2.67225,
2004-02-13, 02:38:00,VALID,917.997,VALID,0,VALID,88.8432,VALID,0.0509425,VALID,20.438,VALID,113,VALID,2.26693,
2004-02-13, 02:39:00,VALID,917.98,VALID,0,VALID,88.6181,VALID,0.0509425,VALID,20.4273,VALID,124,VALID,3.11483,
2004-02-13, 02:40:00,VALID,918.002,VALID,0,VALID,88.8585,VALID,0,VALID,20.4475,VALID,95,VALID,1.48775,
2004-02-13, 02:41:00,VALID,917.983,VALID,0,VALID,89.184,VALID,0.0169808,VALID,20.4249,VALID,71,VALID,1.53543,
2004-02-13, 02:42:00,VALID,917.972,VALID,0,VALID,89.3557,VALID,0.0339617,VALID,20.3796,VALID,119,VALID,1.34109,
2004-02-13, 02:43:00,VALID,917.973,VALID,0,VALID,89.1522,VALID,0.0169808,VALID,20.3575,VALID,102,VALID,2.58467,
2004-02-13, 02:44:00,VALID,917.975,VALID,0,VALID,88.8508,VALID,-0.0169808,VALID,20.3675,VALID,136,VALID,2.42507,
2004-02-13, 02:45:00,VALID,917.986,VALID,0,VALID,88.4833,VALID,-0.0679233,VALID,20.3936,VALID,121,VALID,2.39918,
2004-02-13, 02:46:00,VALID,917.982,VALID,0,VALID,88.8165,VALID,-0.0679233,VALID,20.4488,VALID,97,VALID,1.43217,
2004-02-13, 02:47:00,VALID,917.954,VALID,0,VALID,88.6652,VALID,-0.101885,VALID,20.4323,VALID,129,VALID,2.53299,
2004-02-13, 02:48:00,VALID,917.967,VALID,0,VALID,88.7389,VALID,-0.0849042,VALID,20.4299,VALID,119,VALID,2.34549,
2004-02-13, 02:49:00,VALID,917.983,VALID,0,VALID,88.6842,VALID,-0.101885,VALID,20.4165,VALID,126,VALID,2.23958,
2004-02-13, 02:50:00,VALID,918.004,VALID,0,VALID,88.5291,VALID,-0.0509425,VALID,20.4296,VALID,112,VALID,1.58103,
2004-02-13, 02:51:00,VALID,918.01,VALID,0,VALID,88.5228,VALID,-0.0679233,VALID,20.4261,VALID,117,VALID,2.17987,
2004-02-13, 02:52:00,VALID,917.986,VALID,0,VALID,88.1209,VALID,-0.0679233,VALID,20.4361,VALID,136,VALID,2.04973,
2004-02-13, 02:53:00,VALID,918.006,VALID,0,VALID,87.8882,VALID,-0.0849042,VALID,20.4711,VALID,124,VALID,2.57813,
2004-02-13, 02:54:00,VALID,918.025,VALID,0,VALID,87.5055,VALID,-0.0849042,VALID,20.5166,VALID,125,VALID,2.17359,
2004-02-13, 02:55:00,VALID,918.032,VALID,0,VALID,87.9022,VALID,-0.0509425,VALID,20.5491,VALID,120,VALID,2.01381,
2004-02-13, 02:56:00,VALID,918.03,VALID,0,VALID,88.2227,VALID,-0.101885,VALID,20.5131,VALID,123,VALID,2.21132,
2004-02-13, 02:57:00,VALID,918.023,VALID,0,VALID,88.3511,VALID,-0.0849042,VALID,20.4843,VALID,111,VALID,1.80335,
2004-02-13, 02:58:00,VALID,918.022,VALID,0,VALID,88.5545,VALID,-0.0679233,VALID,20.4426,VALID,103,VALID,1.53757,
2004-02-13, 02:59:00,VALID,918.01,VALID,0,VALID,89.0034,VALID,0,VALID,20.4184,VALID,80,VALID,1.34219,
2004-02-13, 03:00:00,VALID,917.992,VALID,0,VALID,88.3524,VALID,0.0169808,VALID,20.3888,VALID,105,VALID,2.0463,
2004-02-13, 03:01:00,VALID,917.975,VALID,0,VALID,88.3956,VALID,0.0169808,VALID,20.4243,VALID,108,VALID,1.15434,
2004-02-13, 03:02:00,VALID,917.956,VALID,0,VALID,88.3549,VALID,0.0339617,VALID,20.4437,VALID,104,VALID,1.12891,
2004-02-13, 03:03:00,VALID,917.945,VALID,0,VALID,88.3409,VALID,0.0339617,VALID,20.4544,VALID,103,VALID,1.63608,
2004-02-13, 03:04:00,VALID,917.93,VALID,0,VALID,88.655,VALID,0.0509425,VALID,20.4432,VALID,112,VALID,1.49665,
2004-02-13, 03:05:00,VALID,917.911,VALID,0,VALID,88.3333,VALID,0.0339617,VALID,20.4144,VALID,134,VALID,1.90298,
2004-02-13, 03:06:00,VALID,917.917,VALID,0,VALID,88.0078,VALID,0,VALID,20.4114,VALID,108,VALID,2.04018,
2004-02-13, 03:07:00,VALID,917.944,VALID,0,VALID,88.3587,VALID,0.0169808,VALID,20.4214,VALID,127,VALID,1.96439,
2004-02-13, 03:08:00,VALID,917.965,VALID,0,VALID,88.7936,VALID,0,VALID,20.4119,VALID,126,VALID,1.881,
2004-02-13, 03:09:00,VALID,917.965,VALID,0,VALID,89.3099,VALID,0,VALID,20.3632,VALID,131,VALID,1.3,
2004-02-13, 03:10:00,VALID,917.944,VALID,0,VALID,89.4383,VALID,0,VALID,20.3178,VALID,140,VALID,1.54833,
2004-02-13, 03:11:00,VALID,917.939,VALID,0,VALID,89.4498,VALID,0,VALID,20.276,VALID,139,VALID,1.79883,
2004-02-13, 03:12:00,VALID,917.915,VALID,0,VALID,88.9462,VALID,0.0339617,VALID,20.2693,VALID,125,VALID,2.06879,
2004-02-13, 03:13:00,VALID,917.911,VALID,0,VALID,89.2501,VALID,0.0509425,VALID,20.3081,VALID,142,VALID,1.58033,
2004-02-13, 03:14:00,VALID,917.875,VALID,0,VALID,89.6469,VALID,-0.0509425,VALID,20.293,VALID,138,VALID,2.05745,
2004-02-13, 03:15:00,VALID,917.849,VALID,0,VALID,90.0894,VALID,-0.0849042,VALID,20.255,VALID,137,VALID,2.12598,
2004-02-13, 03:16:00,VALID,917.822,VALID,0,VALID,90.2458,VALID,-0.0169808,VALID,20.1834,VALID,139,VALID,1.99409,
2004-02-13, 03:17:00,VALID,917.806,VALID,0,VALID,90.6082,VALID,-0.0849042,VALID,20.1422,VALID,149,VALID,1.74503,
2004-02-13, 03:18:00,VALID,917.787,VALID,0,VALID,90.9566,VALID,-0.0679233,VALID,20.0965,VALID,135,VALID,2.52261,
2004-02-13, 03:19:00,VALID,917.8,VALID,0,VALID,91.4169,VALID,-0.0509425,VALID,20.0381,VALID,138,VALID,1.91297,
2004-02-13, 03:20:00,VALID,917.819,VALID,0,VALID,91.6573,VALID,-0.0849042,VALID,19.9829,VALID,136,VALID,2.66426,
2004-02-13, 03:21:00,VALID,917.862,VALID,0,VALID,91.9268,VALID,-0.101885,VALID,19.9449,VALID,149,VALID,2.08464,
2004-02-13, 03:22:00,VALID,917.899,VALID,0,VALID,91.9841,VALID,-0.0679233,VALID,19.9223,VALID,138,VALID,2.38754,
2004-02-13, 03:23:00,VALID,917.918,VALID,0,VALID,92.1532,VALID,-0.0849042,VALID,19.9091,VALID,131,VALID,1.87891,
2004-02-13, 03:24:00,VALID,917.918,VALID,0,VALID,92.3961,VALID,-0.0849042,VALID,19.8863,VALID,146,VALID,2.39825,
2004-02-13, 03:25:00,VALID,917.948,VALID,0,VALID,92.719,VALID,-0.0849042,VALID,19.8739,VALID,142,VALID,2.27902,
2004-02-13, 03:26:00,VALID,917.947,VALID,0,VALID,93.0929,VALID,-0.0849042,VALID,19.8319,VALID,150,VALID,2.30575,
2004-02-13, 03:27:00,VALID,917.962,VALID,0,VALID,93.4006,VALID,-0.101885,VALID,19.7969,VALID,145,VALID,1.91992,
2004-02-13, 03:28:00,VALID,917.966,VALID,0,VALID,93.6015,VALID,-0.118866,VALID,19.7676,VALID,141,VALID,1.97117,
2004-02-13, 03:29:00,VALID,917.949,VALID,0,VALID,93.6893,VALID,0.0169808,VALID,19.7437,VALID,137,VALID,2.41225,
2004-02-13, 03:30:00,VALID,917.948,VALID,0,VALID,93.7643,VALID,0,VALID,19.7271,VALID,151,VALID,1.98819,
2004-02-13, 03:31:00,VALID,917.935,VALID,0,VALID,93.922,VALID,0.0169808,VALID,19.7305,VALID,147,VALID,1.91388,
2004-02-13, 03:32:00,VALID,917.91,VALID,0,VALID,93.7529,VALID,0.0169808,VALID,19.7241,VALID,147,VALID,3.07701,
2004-02-13, 03:33:00,VALID,917.899,VALID,0,VALID,93.5405,VALID,0,VALID,19.7497,VALID,145,VALID,2.0932,
2004-02-13, 03:34:00,VALID,917.876,VALID,0,VALID,93.3116,VALID,0,VALID,19.7852,VALID,138,VALID,2.57626,